Private Wetterstation Wechselburg
Wetterdaten: Dienstag, 06.07.2021
Datum Zeit Temp. +2m Bodentemp. Temp.+5cm Temp. Wind Windchill X Diff Temp. Feuchte +2m Feuchte +5cm Luftdruck Regen Wind Richtung Richtung Sonnenschein Taupunkt Windchill Windben
06.07.2021 00:03 16,9 C 19,4 C 16,4 C 16,5 C 15,8 C 0,0 C 84 % 89 % 1011,6 hPa 0,0 l/m 0,0 km/h (0 Bft) NO 45 0 min 14,2 C 15,8 C 0,0 km/h (0 Bft)
06.07.2021 00:08 16,8 C 19,4 C 16,3 C 16,4 C 15,7 C 0,0 C 84 % 89 % 1011,6 hPa 0,0 l/m 0,0 km/h (0 Bft) NO 45 0 min 14,1 C 15,7 C 0,0 km/h (0 Bft)
06.07.2021 00:13 16,8 C 19,4 C 16,1 C 16,4 C 15,5 C 0,0 C 84 % 90 % 1011,9 hPa 0,0 l/m 0,0 km/h (0 Bft) NO 45 0 min 14,1 C 15,5 C 0,0 km/h (0 Bft)
06.07.2021 00:18 16,7 C 19,4 C 16,1 C 16,2 C 15,3 C 0,0 C 84 % 90 % 1011,9 hPa 0,0 l/m 0,0 km/h (0 Bft) NO 45 0 min 14,0 C 15,3 C 0,0 km/h (0 Bft)
06.07.2021 00:23 16,6 C 19,4 C 16,0 C 16,1 C 15,1 C 0,0 C 84 % 90 % 1011,9 hPa 0,0 l/m 0,0 km/h (0 Bft) NO 45 0 min 13,9 C 15,1 C 0,0 km/h (0 Bft)
06.07.2021 00:28 16,5 C 19,4 C 15,9 C 16,0 C 15,0 C 0,0 C 84 % 90 % 1011,9 hPa 0,0 l/m 0,0 km/h (0 Bft) NO 45 0 min 13,8 C 15,0 C 0,0 km/h (0 Bft)
06.07.2021 00:33 16,4 C 19,4 C 15,9 C 15,9 C 14,9 C 0,0 C 84 % 90 % 1011,8 hPa 0,0 l/m 0,0 km/h (0 Bft) NO 45 0 min 13,7 C 14,9 C 0,0 km/h (0 Bft)
06.07.2021 00:38 16,3 C 19,4 C 15,8 C 15,8 C 14,9 C 0,0 C 85 % 90 % 1011,8 hPa 0,0 l/m 0,0 km/h (0 Bft) NO 45 0 min 13,8 C 14,9 C 0,0 km/h (0 Bft)
06.07.2021 00:43 16,2 C 19,4 C 15,7 C 15,7 C 14,8 C 0,0 C 85 % 90 % 1011,8 hPa 0,0 l/m 0,0 km/h (0 Bft) NO 45 0 min 13,7 C 14,8 C 0,0 km/h (0 Bft)
06.07.2021 00:48 16,2 C 19,4 C 15,7 C 15,7 C 14,7 C 0,0 C 85 % 91 % 1011,8 hPa 0,0 l/m 0,0 km/h (0 Bft) NO 45 0 min 13,7 C 14,7 C 0,0 km/h (0 Bft)
06.07.2021 00:53 16,1 C 19,3 C 15,6 C 15,6 C 14,7 C 0,0 C 85 % 91 % 1012,0 hPa 0,0 l/m 0,0 km/h (0 Bft) NO 45 0 min 13,6 C 14,7 C 0,0 km/h (0 Bft)
06.07.2021 00:58 16,0 C 19,3 C 15,5 C 15,6 C 14,7 C 0,0 C 85 % 90 % 1012,0 hPa 0,0 l/m 0,0 km/h (0 Bft) NO 45 0 min 13,5 C 14,7 C 0,0 km/h (0 Bft)
06.07.2021 01:03 16,0 C 19,3 C 15,4 C 15,6 C 14,7 C 0,0 C 85 % 90 % 1012,0 hPa 0,0 l/m 0,0 km/h (0 Bft) NO 45 0 min 13,5 C 14,7 C 0,0 km/h (0 Bft)
06.07.2021 01:08 15,8 C 19,3 C 15,4 C 15,4 C 14,7 C 0,0 C 85 % 90 % 1012,0 hPa 0,0 l/m 0,0 km/h (0 Bft) NO 45 0 min 13,3 C 14,7 C 0,0 km/h (0 Bft)
06.07.2021 01:13 15,7 C 19,3 C 15,3 C 15,4 C 14,7 C 0,0 C 86 % 90 % 1011,6 hPa 0,0 l/m 0,0 km/h (0 Bft) NO 45 0 min 13,4 C 14,7 C 0,0 km/h (0 Bft)
06.07.2021 01:18 15,7 C 19,3 C 15,2 C 15,3 C 14,6 C 0,0 C 86 % 90 % 1011,6 hPa 0,0 l/m 0,0 km/h (0 Bft) NO 45 0 min 13,4 C 14,6 C 0,0 km/h (0 Bft)
06.07.2021 01:23 15,7 C 19,3 C 15,1 C 15,3 C 14,5 C 0,0 C 86 % 90 % 1011,6 hPa 0,0 l/m 0,0 km/h (0 Bft) NO 45 0 min 13,4 C 14,5 C 0,0 km/h (0 Bft)
06.07.2021 01:28 15,5 C 19,3 C 15,1 C 15,1 C 14,4 C 0,0 C 86 % 90 % 1011,6 hPa 0,0 l/m 0,0 km/h (0 Bft) NO 45 0 min 13,2 C 14,4 C 0,0 km/h (0 Bft)
06.07.2021 01:33 15,5 C 19,2 C 15,1 C 15,1 C 14,3 C 0,0 C 86 % 91 % 1011,4 hPa 0,0 l/m 0,0 km/h (0 Bft) NO 45 0 min 13,2 C 14,3 C 0,0 km/h (0 Bft)
06.07.2021 01:38 15,5 C 19,2 C 15,1 C 15,1 C 14,3 C 0,0 C 86 % 91 % 1011,4 hPa 0,0 l/m 0,0 km/h (0 Bft) NO 45 0 min 13,2 C 14,3 C 0,0 km/h (0 Bft)
06.07.2021 01:43 15,3 C 19,2 C 15,0 C 14,9 C 14,2 C 0,0 C 86 % 91 % 1011,4 hPa 0,0 l/m 0,0 km/h (0 Bft) NO 45 0 min 13,0 C 14,2 C 0,0 km/h (0 Bft)
06.07.2021 01:48 15,2 C 19,2 C 14,9 C 14,8 C 14,1 C 0,0 C 86 % 91 % 1011,4 hPa 0,0 l/m 0,0 km/h (0 Bft) NO 45 0 min 12,9 C 14,1 C 0,0 km/h (0 Bft)
06.07.2021 01:53 15,1 C 19,2 C 14,8 C 14,8 C 14,1 C 0,0 C 86 % 91 % 1011,6 hPa 0,0 l/m 0,0 km/h (0 Bft) NO 45 0 min 12,8 C 14,1 C 0,0 km/h (0 Bft)
06.07.2021 01:58 15,1 C 19,2 C 14,8 C 14,7 C 14,0 C 0,0 C 86 % 91 % 1011,6 hPa 0,0 l/m 0,0 km/h (0 Bft) NO 45 0 min 12,8 C 14,0 C 0,0 km/h (0 Bft)
06.07.2021 02:03 15,1 C 19,2 C 14,7 C 14,7 C 13,9 C 0,0 C 87 % 91 % 1011,6 hPa 0,0 l/m 0,0 km/h (0 Bft) NO 45 0 min 13,0 C 13,9 C 0,0 km/h (0 Bft)
06.07.2021 02:08 14,9 C 19,1 C 14,7 C 14,5 C 13,8 C 0,0 C 87 % 91 % 1011,6 hPa 0,0 l/m 0,0 km/h (0 Bft) NO 45 0 min 12,8 C 13,8 C 0,0 km/h (0 Bft)
06.07.2021 02:13 14,8 C 19,1 C 14,7 C 14,5 C 13,8 C 0,0 C 87 % 91 % 1011,6 hPa 0,0 l/m 0,0 km/h (0 Bft) NO 45 0 min 12,7 C 13,8 C 0,0 km/h (0 Bft)
06.07.2021 02:18 14,8 C 19,1 C 14,6 C 14,5 C 13,8 C 0,0 C 87 % 91 % 1011,6 hPa 0,0 l/m 0,0 km/h (0 Bft) NO 45 0 min 12,7 C 13,8 C 0,0 km/h (0 Bft)
06.07.2021 02:23 14,7 C 19,1 C 14,5 C 14,4 C 13,8 C 0,0 C 87 % 91 % 1011,6 hPa 0,0 l/m 0,0 km/h (0 Bft) NO 45 0 min 12,6 C 13,8 C 0,0 km/h (0 Bft)
06.07.2021 02:28 14,7 C 19,1 C 14,6 C 14,4 C 13,7 C 0,0 C 87 % 91 % 1011,6 hPa 0,0 l/m 0,0 km/h (0 Bft) NO 45 0 min 12,6 C 13,7 C 0,0 km/h (0 Bft)
06.07.2021 02:33 14,7 C 19,1 C 14,6 C 14,4 C 13,8 C 0,0 C 87 % 91 % 1011,8 hPa 0,0 l/m 0,0 km/h (0 Bft) NO 45 0 min 12,6 C 13,8 C 0,0 km/h (0 Bft)
06.07.2021 02:38 14,7 C 19,1 C 14,5 C 14,4 C 13,9 C 0,0 C 87 % 91 % 1011,8 hPa 0,0 l/m 0,0 km/h (0 Bft) NO 45 0 min 12,6 C 13,9 C 0,0 km/h (0 Bft)
06.07.2021 02:43 14,4 C 19,1 C 14,4 C 14,2 C 13,9 C 0,0 C 87 % 91 % 1011,8 hPa 0,0 l/m 0,0 km/h (0 Bft) NO 45 0 min 12,3 C 13,9 C 0,0 km/h (0 Bft)
06.07.2021 02:48 14,4 C 19,2 C 14,4 C 14,2 C 13,9 C 0,0 C 87 % 91 % 1011,8 hPa 0,0 l/m 0,0 km/h (0 Bft) NO 45 0 min 12,3 C 13,9 C 0,0 km/h (0 Bft)
06.07.2021 02:53 14,4 C 19,1 C 14,4 C 14,2 C 13,9 C 0,0 C 87 % 91 % 1011,5 hPa 0,0 l/m 0,0 km/h (0 Bft) NO 45 0 min 12,3 C 13,9 C 0,0 km/h (0 Bft)
06.07.2021 02:58 14,3 C 19,1 C 14,4 C 14,1 C 13,8 C 0,0 C 87 % 91 % 1011,5 hPa 0,0 l/m 0,0 km/h (0 Bft) NO 45 0 min 12,2 C 13,8 C 0,0 km/h (0 Bft)
06.07.2021 03:03 14,3 C 19,1 C 14,3 C 14,1 C 13,6 C 0,0 C 87 % 91 % 1011,5 hPa 0,0 l/m 0,0 km/h (0 Bft) NO 45 0 min 12,2 C 13,6 C 0,0 km/h (0 Bft)
06.07.2021 03:08 14,3 C 19,1 C 14,2 C 14,0 C 13,5 C 0,0 C 87 % 91 % 1011,5 hPa 0,0 l/m 0,0 km/h (0 Bft) NO 45 0 min 12,2 C 13,5 C 0,0 km/h (0 Bft)
06.07.2021 03:13 14,0 C 19,1 C 14,1 C 13,8 C 13,3 C 0,0 C 87 % 91 % 1011,4 hPa 0,0 l/m 0,0 km/h (0 Bft) NO 45 0 min 11,9 C 13,3 C 0,0 km/h (0 Bft)
06.07.2021 03:18 14,1 C 19,1 C 14,0 C 13,8 C 13,3 C 0,0 C 87 % 91 % 1011,4 hPa 0,0 l/m 0,0 km/h (0 Bft) NO 45 0 min 12,0 C 13,3 C 0,0 km/h (0 Bft)
06.07.2021 03:23 13,9 C 19,1 C 14,0 C 13,6 C 13,1 C 0,0 C 87 % 91 % 1011,4 hPa 0,0 l/m 0,0 km/h (0 Bft) NO 45 0 min 11,8 C 13,1 C 0,0 km/h (0 Bft)
06.07.2021 03:28 13,8 C 19,0 C 13,9 C 13,6 C 13,1 C 0,0 C 87 % 91 % 1011,4 hPa 0,0 l/m 0,0 km/h (0 Bft) NO 45 0 min 11,7 C 13,1 C 0,0 km/h (0 Bft)
06.07.2021 03:33 13,8 C 19,0 C 13,9 C 13,6 C 13,1 C 0,0 C 87 % 91 % 1011,1 hPa 0,0 l/m 0,0 km/h (0 Bft) NO 45 0 min 11,7 C 13,1 C 0,0 km/h (0 Bft)
06.07.2021 03:38 13,7 C 19,0 C 13,9 C 13,5 C 13,1 C 0,0 C 87 % 92 % 1011,1 hPa 0,0 l/m 0,0 km/h (0 Bft) NO 45 0 min 11,6 C 13,1 C 0,0 km/h (0 Bft)
06.07.2021 03:43 13,6 C 19,0 C 13,9 C 13,4 C 13,1 C 0,0 C 87 % 92 % 1011,1 hPa 0,0 l/m 0,0 km/h (0 Bft) NO 45 0 min 11,5 C 13,1 C 0,0 km/h (0 Bft)
06.07.2021 03:48 13,7 C 19,0 C 13,9 C 13,5 C 13,1 C 0,0 C 87 % 92 % 1011,1 hPa 0,0 l/m 0,0 km/h (0 Bft) NO 45 0 min 11,6 C 13,1 C 0,0 km/h (0 Bft)
06.07.2021 03:53 13,6 C 19,0 C 13,9 C 13,4 C 13,1 C 0,0 C 87 % 92 % 1011,2 hPa 0,0 l/m 0,0 km/h (0 Bft) NO 45 0 min 11,5 C 13,1 C 0,0 km/h (0 Bft)
06.07.2021 03:58 13,5 C 19,0 C 13,9 C 13,4 C 13,1 C 0,0 C 87 % 92 % 1011,2 hPa 0,0 l/m 0,0 km/h (0 Bft) NO 45 0 min 11,4 C 13,1 C 0,0 km/h (0 Bft)
06.07.2021 04:03 13,5 C 19,0 C 13,9 C 13,3 C 13,0 C 0,0 C 87 % 92 % 1011,2 hPa 0,0 l/m 0,0 km/h (0 Bft) NO 45 0 min 11,4 C 13,0 C 0,0 km/h (0 Bft)
06.07.2021 04:08 13,5 C 19,0 C 13,8 C 13,3 C 12,9 C 0,0 C 87 % 91 % 1011,2 hPa 0,0 l/m 0,0 km/h (0 Bft) NO 45 0 min 11,4 C 12,9 C 0,0 km/h (0 Bft)
06.07.2021 04:13 13,4 C 18,9 C 13,8 C 13,3 C 13,0 C 0,0 C 87 % 91 % 1011,4 hPa 0,0 l/m 0,0 km/h (0 Bft) NO 45 0 min 11,3 C 13,0 C 0,0 km/h (0 Bft)
06.07.2021 04:18 13,4 C 18,9 C 13,8 C 13,3 C 13,0 C 0,0 C 87 % 91 % 1011,4 hPa 0,0 l/m 0,0 km/h (0 Bft) NO 45 0 min 11,3 C 13,0 C 0,0 km/h (0 Bft)
06.07.2021 04:23 13,3 C 18,9 C 13,7 C 13,2 C 12,9 C 0,0 C 87 % 91 % 1011,4 hPa 0,0 l/m 0,0 km/h (0 Bft) NO 45 0 min 11,2 C 12,9 C 0,0 km/h (0 Bft)
06.07.2021 06:02 13,0 C 18,8 C 13,7 C 13,0 C 13,0 C 0,0 C 88 % 91 % 1011,4 hPa 0,0 l/m 0,0 km/h (0 Bft) NO 45 0 min 11,1 C 13,0 C 0,0 km/h (0 Bft)
06.07.2021 06:05 13,1 C 18,8 C 13,7 C 13,1 C 13,0 C 0,0 C 88 % 91 % 1011,4 hPa 0,0 l/m 0,0 km/h (0 Bft) NO 45 0 min 11,2 C 13,0 C 0,0 km/h (0 Bft)
06.07.2021 06:10 13,1 C 18,8 C 13,7 C 13,1 C 13,1 C 0,0 C 88 % 91 % 1011,4 hPa 0,0 l/m 0,0 km/h (0 Bft) NO 45 0 min 11,2 C 13,1 C 0,0 km/h (0 Bft)
06.07.2021 06:15 13,0 C 18,8 C 13,8 C 13,3 C 13,3 C 0,3 C 88 % 91 % 1011,4 hPa 0,0 l/m 0,0 km/h (0 Bft) NO 45 0 min 11,1 C 13,3 C 0,0 km/h (0 Bft)
06.07.2021 06:20 13,1 C 18,8 C 13,9 C 13,4 C 13,4 C 0,3 C 88 % 92 % 1011,4 hPa 0,0 l/m 0,0 km/h (0 Bft) NO 45 0 min 11,2 C 13,4 C 0,0 km/h (0 Bft)
06.07.2021 06:25 13,0 C 18,8 C 14,0 C 13,7 C 13,7 C 0,7 C 88 % 92 % 1011,4 hPa 0,0 l/m 0,0 km/h (0 Bft) NO 45 0 min 11,1 C 13,7 C 0,0 km/h (0 Bft)
06.07.2021 06:30 13,1 C 18,8 C 14,1 C 13,8 C 13,8 C 0,7 C 88 % 92 % 1011,4 hPa 0,0 l/m 0,0 km/h (0 Bft) NO 45 0 min 11,2 C 13,8 C 0,0 km/h (0 Bft)
06.07.2021 06:35 13,1 C 18,8 C 14,3 C 14,1 C 14,1 C 1,0 C 88 % 92 % 1011,4 hPa 0,0 l/m 0,0 km/h (0 Bft) NO 45 0 min 11,2 C 14,1 C 0,0 km/h (0 Bft)
06.07.2021 06:40 13,1 C 18,8 C 14,4 C 14,3 C 14,3 C 1,2 C 88 % 92 % 1011,4 hPa 0,0 l/m 0,0 km/h (0 Bft) NO 45 0 min 11,2 C 14,3 C 0,0 km/h (0 Bft)
06.07.2021 06:45 13,2 C 18,7 C 14,6 C 14,4 C 14,4 C 1,2 C 88 % 92 % 1011,4 hPa 0,0 l/m 0,0 km/h (0 Bft) NO 45 0 min 11,3 C 14,4 C 0,0 km/h (0 Bft)
06.07.2021 06:50 13,2 C 18,7 C 14,7 C 14,6 C 14,6 C 1,4 C 88 % 92 % 1011,4 hPa 0,0 l/m 0,0 km/h (0 Bft) NO 45 0 min 11,3 C 14,6 C 0,0 km/h (0 Bft)
06.07.2021 06:55 13,3 C 18,7 C 15,2 C 14,8 C 14,8 C 1,5 C 88 % 92 % 1011,3 hPa 0,0 l/m 0,0 km/h (0 Bft) NO 45 0 min 11,4 C 14,8 C 0,0 km/h (0 Bft)
06.07.2021 07:00 13,5 C 18,7 C 15,5 C 15,0 C 15,0 C 1,5 C 88 % 92 % 1011,3 hPa 0,0 l/m 0,0 km/h (0 Bft) NO 45 0 min 11,6 C 15,0 C 0,0 km/h (0 Bft)
06.07.2021 07:05 13,5 C 18,7 C 15,9 C 16,4 C 16,4 C 2,9 C 88 % 92 % 1011,3 hPa 0,0 l/m 0,0 km/h (0 Bft) NO 45 5 min 11,6 C 16,4 C 0,0 km/h (0 Bft)
06.07.2021 07:10 13,7 C 18,6 C 16,1 C 19,3 C 19,3 C 5,6 C 88 % 92 % 1011,3 hPa 0,0 l/m 0,0 km/h (0 Bft) NO 45 5 min 11,7 C 19,3 C 0,0 km/h (0 Bft)
06.07.2021 07:15 13,9 C 18,6 C 16,5 C 23,1 C 23,1 C 9,2 C 88 % 91 % 1011,5 hPa 0,0 l/m 0,0 km/h (0 Bft) NO 45 5 min 11,9 C 23,1 C 0,0 km/h (0 Bft)
06.07.2021 07:20 14,0 C 18,5 C 16,7 C 24,6 C 24,6 C 10,6 C 88 % 91 % 1011,5 hPa 0,0 l/m 0,0 km/h (0 Bft) NO 45 5 min 12,0 C 24,6 C 0,0 km/h (0 Bft)
06.07.2021 07:25 14,6 C 18,5 C 16,9 C 26,3 C 26,3 C 11,7 C 88 % 91 % 1011,5 hPa 0,0 l/m 0,0 km/h (0 Bft) NO 45 5 min 12,6 C 26,3 C 0,0 km/h (0 Bft)
06.07.2021 07:30 15,1 C 18,5 C 17,1 C 27,2 C 27,2 C 12,1 C 88 % 91 % 1011,5 hPa 0,0 l/m 0,0 km/h (0 Bft) NO 45 5 min 13,1 C 27,2 C 0,0 km/h (0 Bft)
06.07.2021 07:35 15,9 C 18,4 C 17,5 C 28,4 C 28,4 C 12,5 C 88 % 91 % 1011,4 hPa 0,0 l/m 0,0 km/h (0 Bft) NO 45 5 min 13,9 C 28,4 C 0,0 km/h (0 Bft)
06.07.2021 07:40 16,7 C 18,4 C 17,6 C 29,3 C 29,3 C 12,6 C 89 % 90 % 1011,4 hPa 0,0 l/m 0,0 km/h (0 Bft) NO 45 5 min 14,9 C 29,3 C 0,0 km/h (0 Bft)
06.07.2021 07:45 17,1 C 18,4 C 17,6 C 30,2 C 30,2 C 13,1 C 88 % 90 % 1011,4 hPa 0,0 l/m 0,0 km/h (0 Bft) NO 45 5 min 15,1 C 30,2 C 0,0 km/h (0 Bft)
06.07.2021 07:50 17,3 C 18,4 C 17,7 C 30,9 C 30,9 C 13,6 C 88 % 90 % 1011,4 hPa 0,0 l/m 0,0 km/h (0 Bft) NO 45 5 min 15,3 C 30,9 C 0,0 km/h (0 Bft)
06.07.2021 07:55 17,8 C 18,3 C 17,9 C 31,2 C 31,2 C 13,4 C 88 % 90 % 1011,2 hPa 0,0 l/m 0,0 km/h (0 Bft) NO 45 5 min 15,8 C 31,2 C 0,0 km/h (0 Bft)
06.07.2021 08:00 18,3 C 18,3 C 18,0 C 31,3 C 31,3 C 13,0 C 87 % 90 % 1011,2 hPa 0,0 l/m 0,0 km/h (0 Bft) NO 45 5 min 16,1 C 31,3 C 0,0 km/h (0 Bft)
06.07.2021 08:05 18,8 C 18,3 C 18,4 C 31,8 C 31,8 C 13,0 C 88 % 90 % 1011,2 hPa 0,0 l/m 0,0 km/h (0 Bft) NO 45 5 min 16,8 C 31,8 C 0,0 km/h (0 Bft)
06.07.2021 08:11 19,3 C 18,3 C 18,5 C 32,3 C 32,3 C 13,0 C 87 % 90 % 1011,2 hPa 0,0 l/m 0,0 km/h (0 Bft) N 0 6 min 17,1 C 32,3 C 0,0 km/h (0 Bft)
06.07.2021 08:29 22,2 C 18,3 C 19,0 C 33,0 C 33,0 C 10,8 C 83 % 88 % 1011,1 hPa 0,0 l/m 0,2 km/h (0 Bft) NO 45 18 min 19,2 C 33,0 C 2,4 km/h (1 Bft)
06.07.2021 08:30 22,2 C 18,3 C 19,0 C 33,0 C 33,0 C 10,8 C 83 % 88 % 1011,1 hPa 0,0 l/m 0,2 km/h (0 Bft) NO 45 1 min 19,2 C 33,0 C 2,4 km/h (1 Bft)
06.07.2021 08:41 22,7 C 18,3 C 19,5 C 31,9 C 31,9 C 9,2 C 78 % 87 % 1011,0 hPa 0,0 l/m 1,6 km/h (1 Bft) SO 135 11 min 18,7 C 31,9 C 5,3 km/h (1 Bft)
06.07.2021 08:45 23,1 C 18,3 C 19,5 C 33,0 C 33,0 C 9,9 C 76 % 87 % 1011,0 hPa 0,0 l/m 0,5 km/h (0 Bft) W-NW 292 4 min 18,6 C 33,0 C 0,0 km/h (0 Bft)
06.07.2021 08:50 23,6 C 18,3 C 19,5 C 33,7 C 33,7 C 10,1 C 75 % 86 % 1011,0 hPa 0,0 l/m 0,0 km/h (0 Bft) O-NO 67 5 min 18,9 C 33,7 C 0,0 km/h (0 Bft)
06.07.2021 08:55 24,1 C 18,3 C 19,7 C 34,6 C 34,6 C 10,5 C 73 % 85 % 1010,9 hPa 0,0 l/m 0,0 km/h (0 Bft) SW 225 5 min 18,9 C 34,6 C 0,0 km/h (0 Bft)
06.07.2021 09:00 24,3 C 18,3 C 19,7 C 34,8 C 34,8 C 10,5 C 71 % 85 % 1010,9 hPa 0,0 l/m 0,0 km/h (0 Bft) S-SO 157 5 min 18,7 C 34,8 C 0,0 km/h (0 Bft)
06.07.2021 09:05 24,6 C 18,2 C 19,9 C 35,2 C 35,2 C 10,6 C 69 % 85 % 1010,9 hPa 0,0 l/m 0,2 km/h (0 Bft) S-SW 202 5 min 18,5 C 35,2 C 1,8 km/h (1 Bft)
06.07.2021 09:10 24,6 C 18,2 C 19,9 C 35,2 C 35,2 C 10,6 C 67 % 84 % 1010,9 hPa 0,0 l/m 0,2 km/h (0 Bft) W-SW 247 5 min 18,1 C 35,2 C 0,0 km/h (0 Bft)
06.07.2021 09:15 24,7 C 18,2 C 19,9 C 34,7 C 34,7 C 10,0 C 66 % 84 % 1010,8 hPa 0,0 l/m 0,5 km/h (0 Bft) NO 45 5 min 17,9 C 34,7 C 0,0 km/h (0 Bft)
06.07.2021 09:20 24,7 C 18,2 C 19,9 C 34,7 C 34,7 C 10,0 C 67 % 83 % 1010,8 hPa 0,0 l/m 0,5 km/h (0 Bft) W-NW 292 5 min 18,1 C 34,7 C 0,0 km/h (0 Bft)
06.07.2021 09:25 25,0 C 18,2 C 20,2 C 35,4 C 35,4 C 10,4 C 66 % 83 % 1010,8 hPa 0,0 l/m 0,3 km/h (0 Bft) SW 225 5 min 18,2 C 35,4 C 0,0 km/h (0 Bft)
06.07.2021 09:30 25,0 C 18,2 C 20,3 C 35,7 C 35,7 C 10,7 C 64 % 82 % 1010,8 hPa 0,0 l/m 0,0 km/h (0 Bft) SW 225 5 min 17,7 C 35,7 C 0,0 km/h (0 Bft)
06.07.2021 09:35 24,9 C 18,3 C 20,5 C 33,3 C 33,3 C 8,4 C 64 % 82 % 1010,7 hPa 0,0 l/m 0,6 km/h (0 Bft) S 180 5 min 17,6 C 33,3 C 0,0 km/h (0 Bft)
06.07.2021 09:40 24,9 C 18,3 C 20,7 C 30,6 C 30,6 C 5,7 C 64 % 82 % 1010,7 hPa 0,0 l/m 0,6 km/h (0 Bft) S 180 5 min 17,6 C 30,6 C 0,0 km/h (0 Bft)
06.07.2021 09:45 24,8 C 18,3 C 20,8 C 28,7 C 28,7 C 3,9 C 63 % 80 % 1010,7 hPa 0,0 l/m 0,3 km/h (0 Bft) SO 135 5 min 17,3 C 28,7 C 3,5 km/h (1 Bft)
06.07.2021 09:50 24,8 C 18,3 C 20,8 C 28,9 C 28,9 C 4,1 C 62 % 80 % 1010,7 hPa 0,0 l/m 0,8 km/h (0 Bft) S-SW 202 5 min 17,0 C 28,9 C 2,4 km/h (1 Bft)
06.07.2021 09:55 24,6 C 18,3 C 20,7 C 30,8 C 30,8 C 6,2 C 62 % 79 % 1011,0 hPa 0,0 l/m 1,0 km/h (0 Bft) N 360 5 min 16,8 C 30,8 C 0,0 km/h (0 Bft)
06.07.2021 10:00 24,7 C 18,3 C 20,9 C 31,0 C 31,0 C 6,3 C 63 % 78 % 1011,0 hPa 0,0 l/m 0,5 km/h (0 Bft) W-SW 247 5 min 17,2 C 31,0 C 0,0 km/h (0 Bft)
06.07.2021 10:05 24,6 C 18,3 C 21,0 C 29,3 C 29,3 C 4,7 C 62 % 78 % 1011,0 hPa 0,0 l/m 0,2 km/h (0 Bft) W-SW 247 5 min 16,8 C 29,3 C 0,0 km/h (0 Bft)
06.07.2021 10:10 24,7 C 18,3 C 21,2 C 28,5 C 28,5 C 3,8 C 63 % 77 % 1011,0 hPa 0,0 l/m 0,3 km/h (0 Bft) S-SW 202 5 min 17,2 C 28,5 C 2,4 km/h (1 Bft)
06.07.2021 10:15 24,7 C 18,3 C 21,3 C 30,4 C 30,4 C 5,7 C 62 % 77 % 1010,6 hPa 0,0 l/m 0,5 km/h (0 Bft) N-NO 22 5 min 16,9 C 30,4 C 0,0 km/h (0 Bft)
06.07.2021 10:20 24,7 C 18,3 C 21,4 C 32,1 C 32,1 C 7,4 C 62 % 76 % 1010,6 hPa 0,0 l/m 0,5 km/h (0 Bft) S 180 5 min 16,9 C 32,1 C 2,1 km/h (1 Bft)
06.07.2021 10:25 24,8 C 18,3 C 21,4 C 33,4 C 33,4 C 8,6 C 61 % 75 % 1010,6 hPa 0,0 l/m 0,6 km/h (0 Bft) S-SO 157 5 min 16,8 C 33,4 C 0,0 km/h (0 Bft)
06.07.2021 10:30 24,8 C 18,3 C 21,6 C 34,1 C 34,1 C 9,3 C 61 % 75 % 1010,6 hPa 0,0 l/m 0,8 km/h (0 Bft) S-SO 157 5 min 16,8 C 34,1 C 3,1 km/h (1 Bft)
06.07.2021 10:35 25,1 C 18,3 C 21,6 C 34,4 C 34,4 C 9,3 C 61 % 74 % 1010,4 hPa 0,0 l/m 0,8 km/h (0 Bft) SO 135 5 min 17,0 C 34,4 C 2,7 km/h (1 Bft)
06.07.2021 10:40 25,1 C 18,3 C 21,7 C 34,6 C 34,6 C 9,5 C 61 % 74 % 1010,4 hPa 0,0 l/m 0,8 km/h (0 Bft) S-SO 157 5 min 17,0 C 34,6 C 0,0 km/h (0 Bft)
06.07.2021 10:45 25,3 C 18,3 C 21,7 C 34,8 C 34,8 C 9,5 C 60 % 74 % 1010,4 hPa 0,0 l/m 0,8 km/h (0 Bft) S-SW 202 5 min 17,0 C 34,8 C 0,0 km/h (0 Bft)
06.07.2021 10:50 25,4 C 18,4 C 21,9 C 34,8 C 34,8 C 9,4 C 60 % 74 % 1010,4 hPa 0,0 l/m 0,6 km/h (0 Bft) SW 225 5 min 17,1 C 34,8 C 2,3 km/h (1 Bft)
06.07.2021 10:55 25,4 C 18,4 C 22,2 C 34,6 C 34,6 C 9,2 C 59 % 72 % 1010,7 hPa 0,0 l/m 0,6 km/h (0 Bft) S 180 5 min 16,8 C 34,6 C 8,0 km/h (2 Bft)
06.07.2021 11:00 25,6 C 18,4 C 22,3 C 35,0 C 35,0 C 9,4 C 59 % 71 % 1010,7 hPa 0,0 l/m 0,6 km/h (0 Bft) O-SO 112 5 min 17,0 C 35,0 C 0,0 km/h (0 Bft)
06.07.2021 11:05 25,7 C 18,4 C 22,4 C 35,2 C 35,2 C 9,5 C 59 % 71 % 1010,7 hPa 0,0 l/m 0,2 km/h (0 Bft) SO 135 5 min 17,1 C 35,2 C 0,0 km/h (0 Bft)
06.07.2021 11:10 26,0 C 18,4 C 22,7 C 35,1 C 35,1 C 9,1 C 58 % 70 % 1010,7 hPa 0,0 l/m 0,5 km/h (0 Bft) S 180 5 min 17,1 C 35,1 C 2,9 km/h (1 Bft)
06.07.2021 11:15 26,1 C 18,4 C 22,7 C 35,1 C 35,1 C 9,0 C 58 % 70 % 1010,5 hPa 0,0 l/m 0,8 km/h (0 Bft) W-SW 247 5 min 17,2 C 35,1 C 0,0 km/h (0 Bft)
06.07.2021 11:20 26,1 C 18,4 C 22,7 C 35,1 C 35,1 C 9,0 C 57 % 70 % 1010,5 hPa 0,0 l/m 0,8 km/h (0 Bft) SW 225 5 min 16,9 C 35,1 C 2,9 km/h (1 Bft)
06.07.2021 11:25 26,1 C 18,5 C 22,9 C 34,0 C 34,0 C 7,9 C 57 % 70 % 1010,5 hPa 0,0 l/m 1,4 km/h (1 Bft) N-NO 22 5 min 16,9 C 34,0 C 3,5 km/h (1 Bft)
06.07.2021 11:30 26,2 C 18,5 C 22,9 C 32,4 C 32,4 C 6,2 C 57 % 70 % 1010,5 hPa 0,0 l/m 1,3 km/h (1 Bft) S 180 5 min 17,0 C 32,4 C 0,0 km/h (0 Bft)
06.07.2021 11:35 26,3 C 18,5 C 23,1 C 33,0 C 33,0 C 6,7 C 57 % 69 % 1010,6 hPa 0,0 l/m 0,5 km/h (0 Bft) S 180 5 min 17,1 C 33,0 C 0,0 km/h (0 Bft)
06.07.2021 11:40 26,4 C 18,5 C 23,3 C 33,9 C 33,9 C 7,5 C 56 % 68 % 1010,6 hPa 0,0 l/m 0,2 km/h (0 Bft) N-NW 337 5 min 16,9 C 33,9 C 0,0 km/h (0 Bft)
06.07.2021 11:45 26,4 C 18,5 C 23,4 C 34,7 C 34,7 C 8,3 C 57 % 69 % 1010,6 hPa 0,0 l/m 0,2 km/h (0 Bft) N-NO 22 5 min 17,2 C 34,7 C 0,0 km/h (0 Bft)
06.07.2021 11:50 26,5 C 18,6 C 23,5 C 35,2 C 35,2 C 8,7 C 57 % 68 % 1010,6 hPa 0,0 l/m 0,2 km/h (0 Bft) S 180 5 min 17,3 C 35,2 C 2,1 km/h (1 Bft)
06.07.2021 11:55 26,6 C 18,6 C 23,5 C 35,7 C 35,7 C 9,1 C 56 % 68 % 1010,5 hPa 0,0 l/m 0,0 km/h (0 Bft) S 180 5 min 17,1 C 35,7 C 0,0 km/h (0 Bft)
06.07.2021 12:00 26,7 C 18,6 C 23,7 C 35,8 C 35,8 C 9,1 C 55 % 68 % 1010,5 hPa 0,0 l/m 0,5 km/h (0 Bft) SO 135 5 min 16,9 C 35,8 C 0,0 km/h (0 Bft)
06.07.2021 12:05 26,9 C 18,6 C 23,9 C 35,6 C 35,6 C 8,7 C 55 % 67 % 1010,5 hPa 0,0 l/m 0,8 km/h (0 Bft) O-NO 67 5 min 17,1 C 35,6 C 3,2 km/h (1 Bft)
06.07.2021 12:10 26,9 C 18,7 C 24,1 C 35,0 C 35,0 C 8,1 C 54 % 63 % 1010,5 hPa 0,0 l/m 1,1 km/h (1 Bft) N-NO 22 5 min 16,8 C 35,0 C 0,0 km/h (0 Bft)
06.07.2021 12:15 27,1 C 18,7 C 24,3 C 35,4 C 35,4 C 8,3 C 55 % 65 % 1010,0 hPa 0,0 l/m 0,6 km/h (0 Bft) W-SW 247 5 min 17,3 C 35,4 C 0,0 km/h (0 Bft)
06.07.2021 12:20 27,4 C 18,7 C 24,5 C 35,6 C 35,6 C 8,2 C 55 % 65 % 1010,0 hPa 0,0 l/m 0,3 km/h (0 Bft) SW 225 5 min 17,5 C 35,6 C 2,4 km/h (1 Bft)
06.07.2021 12:25 27,7 C 18,6 C 24,5 C 35,4 C 35,4 C 7,7 C 53 % 65 % 1010,0 hPa 0,0 l/m 0,8 km/h (0 Bft) S 180 5 min 17,2 C 35,4 C 0,0 km/h (0 Bft)
06.07.2021 12:30 27,9 C 18,6 C 24,6 C 35,4 C 35,4 C 7,5 C 54 % 64 % 1010,0 hPa 0,0 l/m 1,0 km/h (0 Bft) O-SO 112 5 min 17,7 C 35,4 C 1,6 km/h (1 Bft)
06.07.2021 12:35 28,3 C 18,7 C 24,7 C 35,5 C 35,5 C 7,2 C 52 % 64 % 1010,2 hPa 0,0 l/m 0,8 km/h (0 Bft) SO 135 5 min 17,5 C 35,5 C 0,0 km/h (0 Bft)
06.07.2021 12:40 28,7 C 18,7 C 24,9 C 35,6 C 35,6 C 6,9 C 52 % 64 % 1010,2 hPa 0,0 l/m 0,5 km/h (0 Bft) W-SW 247 5 min 17,8 C 35,6 C 0,0 km/h (0 Bft)
06.07.2021 12:45 29,1 C 18,7 C 24,8 C 36,0 C 36,0 C 6,9 C 50 % 64 % 1010,2 hPa 0,0 l/m 0,3 km/h (0 Bft) SW 225 5 min 17,6 C 36,0 C 1,9 km/h (1 Bft)
06.07.2021 12:50 29,4 C 18,7 C 24,8 C 36,2 C 36,2 C 6,8 C 50 % 64 % 1010,2 hPa 0,0 l/m 0,3 km/h (0 Bft) SW 225 5 min 17,9 C 36,2 C 1,8 km/h (1 Bft)
06.07.2021 12:55 29,8 C 18,7 C 25,0 C 36,3 C 36,3 C 6,5 C 49 % 64 % 1009,9 hPa 0,0 l/m 0,5 km/h (0 Bft) SW 225 5 min 17,9 C 36,3 C 2,3 km/h (1 Bft)
06.07.2021 13:00 30,0 C 18,8 C 25,1 C 36,0 C 36,0 C 6,0 C 48 % 63 % 1009,9 hPa 0,0 l/m 0,6 km/h (0 Bft) O 90 5 min 17,8 C 36,0 C 0,0 km/h (0 Bft)
06.07.2021 13:05 30,5 C 18,8 C 25,3 C 36,2 C 36,2 C 5,7 C 47 % 62 % 1009,9 hPa 0,0 l/m 0,6 km/h (0 Bft) S 180 5 min 17,9 C 36,2 C 0,0 km/h (0 Bft)
06.07.2021 13:10 30,5 C 18,8 C 25,5 C 36,1 C 36,1 C 5,6 C 47 % 62 % 1009,9 hPa 0,0 l/m 0,6 km/h (0 Bft) W-SW 247 5 min 17,9 C 36,1 C 0,0 km/h (0 Bft)
06.07.2021 13:15 30,5 C 18,8 C 25,8 C 35,9 C 35,9 C 5,4 C 46 % 62 % 1009,8 hPa 0,0 l/m 1,1 km/h (1 Bft) W-SW 247 5 min 17,5 C 35,9 C 0,0 km/h (0 Bft)
06.07.2021 13:20 30,6 C 18,9 C 25,9 C 36,0 C 36,0 C 5,4 C 47 % 59 % 1009,8 hPa 0,0 l/m 1,0 km/h (0 Bft) O 90 5 min 18,0 C 36,0 C 2,9 km/h (1 Bft)
06.07.2021 13:25 30,9 C 18,9 C 26,2 C 36,2 C 36,2 C 5,3 C 46 % 60 % 1009,8 hPa 0,0 l/m 0,8 km/h (0 Bft) S-SW 202 5 min 17,9 C 36,2 C 2,6 km/h (1 Bft)
06.07.2021 13:30 30,9 C 18,9 C 26,2 C 36,1 C 36,1 C 5,2 C 46 % 60 % 1009,8 hPa 0,0 l/m 1,1 km/h (1 Bft) SO 135 5 min 17,9 C 36,1 C 2,6 km/h (1 Bft)
06.07.2021 13:35 31,1 C 18,9 C 26,4 C 36,3 C 36,3 C 5,2 C 46 % 60 % 1009,8 hPa 0,0 l/m 1,0 km/h (0 Bft) S 180 5 min 18,1 C 36,3 C 3,4 km/h (1 Bft)
06.07.2021 13:40 31,3 C 19,0 C 26,5 C 36,4 C 36,4 C 5,1 C 46 % 59 % 1009,8 hPa 0,0 l/m 0,6 km/h (0 Bft) NW 315 5 min 18,3 C 36,4 C 2,4 km/h (1 Bft)
06.07.2021 13:45 31,5 C 19,0 C 26,7 C 36,5 C 36,5 C 5,0 C 46 % 58 % 1009,8 hPa 0,0 l/m 1,0 km/h (0 Bft) O-NO 67 5 min 18,4 C 36,5 C 0,0 km/h (0 Bft)
06.07.2021 13:50 31,5 C 19,0 C 26,7 C 36,7 C 36,7 C 5,2 C 46 % 59 % 1009,8 hPa 0,0 l/m 0,8 km/h (0 Bft) SW 225 5 min 18,4 C 36,7 C 3,7 km/h (1 Bft)
06.07.2021 13:55 31,7 C 19,0 C 26,8 C 37,2 C 37,2 C 5,5 C 45 % 57 % 1009,7 hPa 0,0 l/m 0,3 km/h (0 Bft) W 270 5 min 18,3 C 37,2 C 0,0 km/h (0 Bft)
06.07.2021 14:00 31,7 C 19,1 C 26,5 C 36,4 C 36,4 C 4,7 C 45 % 57 % 1009,7 hPa 0,0 l/m 0,3 km/h (0 Bft) SO 135 5 min 18,3 C 36,4 C 0,0 km/h (0 Bft)
06.07.2021 14:05 31,3 C 19,1 C 26,6 C 35,0 C 35,0 C 3,7 C 46 % 58 % 1009,7 hPa 0,0 l/m 0,3 km/h (0 Bft) SW 225 5 min 18,3 C 35,0 C 1,8 km/h (1 Bft)
06.07.2021 14:10 31,3 C 19,1 C 27,1 C 35,6 C 35,6 C 4,3 C 44 % 57 % 1009,7 hPa 0,0 l/m 0,6 km/h (0 Bft) SO 135 5 min 17,6 C 35,6 C 3,5 km/h (1 Bft)
06.07.2021 14:15 31,3 C 19,1 C 27,3 C 36,2 C 36,2 C 4,9 C 45 % 56 % 1009,6 hPa 0,0 l/m 0,8 km/h (0 Bft) O 90 5 min 17,9 C 36,2 C 1,8 km/h (1 Bft)
06.07.2021 14:20 31,3 C 19,2 C 27,3 C 36,3 C 36,3 C 5,0 C 46 % 56 % 1009,6 hPa 0,0 l/m 0,3 km/h (0 Bft) W-SW 247 5 min 18,3 C 36,3 C 0,0 km/h (0 Bft)
06.07.2021 14:25 31,9 C 19,2 C 27,3 C 36,9 C 36,9 C 5,0 C 45 % 56 % 1009,6 hPa 0,0 l/m 0,5 km/h (0 Bft) SW 225 5 min 18,5 C 36,9 C 2,1 km/h (1 Bft)
06.07.2021 14:30 32,2 C 19,2 C 27,3 C 37,1 C 37,1 C 4,9 C 44 % 57 % 1009,6 hPa 0,0 l/m 0,8 km/h (0 Bft) S-SW 202 5 min 18,4 C 37,1 C 1,6 km/h (1 Bft)
06.07.2021 14:35 32,3 C 19,2 C 27,4 C 37,0 C 37,0 C 4,7 C 44 % 58 % 1009,4 hPa 0,0 l/m 1,1 km/h (1 Bft) W-SW 247 5 min 18,5 C 37,0 C 0,0 km/h (0 Bft)
06.07.2021 14:40 32,2 C 19,3 C 27,5 C 37,1 C 37,1 C 4,9 C 44 % 57 % 1009,4 hPa 0,0 l/m 1,0 km/h (0 Bft) O-NO 67 5 min 18,4 C 37,1 C 0,0 km/h (0 Bft)
06.07.2021 14:45 32,2 C 19,3 C 27,4 C 37,1 C 37,1 C 4,9 C 44 % 56 % 1009,4 hPa 0,0 l/m 0,3 km/h (0 Bft) SO 135 5 min 18,4 C 37,1 C 0,0 km/h (0 Bft)
06.07.2021 14:50 32,2 C 19,3 C 27,5 C 36,5 C 36,5 C 4,3 C 44 % 56 % 1009,4 hPa 0,0 l/m 0,3 km/h (0 Bft) SW 225 5 min 18,4 C 36,5 C 0,0 km/h (0 Bft)
06.07.2021 14:55 32,1 C 19,3 C 27,9 C 36,9 C 36,9 C 4,8 C 44 % 57 % 1009,5 hPa 0,0 l/m 0,8 km/h (0 Bft) S-SW 202 5 min 18,3 C 36,9 C 1,6 km/h (1 Bft)
06.07.2021 15:00 32,3 C 19,4 C 27,9 C 37,4 C 37,4 C 5,1 C 44 % 57 % 1009,5 hPa 0,0 l/m 1,0 km/h (0 Bft) N-NW 337 5 min 18,5 C 37,4 C 0,0 km/h (0 Bft)
06.07.2021 15:05 32,4 C 19,4 C 27,7 C 37,3 C 37,3 C 4,9 C 44 % 56 % 1009,5 hPa 0,0 l/m 1,0 km/h (0 Bft) W-SW 247 5 min 18,5 C 37,3 C 2,1 km/h (1 Bft)
06.07.2021 15:10 32,3 C 19,4 C 27,5 C 36,1 C 36,1 C 3,8 C 44 % 57 % 1009,5 hPa 0,0 l/m 0,5 km/h (0 Bft) W-SW 247 5 min 18,5 C 36,1 C 0,0 km/h (0 Bft)
06.07.2021 15:15 31,8 C 19,4 C 27,1 C 34,8 C 34,8 C 3,0 C 44 % 57 % 1009,4 hPa 0,0 l/m 0,3 km/h (0 Bft) S 180 0 min 18,0 C 34,8 C 0,0 km/h (0 Bft)
06.07.2021 15:20 31,5 C 19,4 C 27,2 C 34,1 C 34,1 C 2,6 C 45 % 57 % 1009,4 hPa 0,0 l/m 0,2 km/h (0 Bft) W-NW 292 0 min 18,1 C 34,1 C 2,3 km/h (1 Bft)
06.07.2021 15:25 31,3 C 19,4 C 27,3 C 33,8 C 33,8 C 2,5 C 45 % 58 % 1009,4 hPa 0,0 l/m 0,3 km/h (0 Bft) W-SW 247 0 min 17,9 C 33,8 C 0,0 km/h (0 Bft)
06.07.2021 15:30 31,1 C 19,5 C 27,3 C 33,7 C 33,7 C 2,6 C 46 % 58 % 1009,4 hPa 0,0 l/m 0,3 km/h (0 Bft) O-NO 67 0 min 18,1 C 33,7 C 1,8 km/h (1 Bft)
06.07.2021 15:35 30,9 C 19,5 C 27,3 C 33,6 C 33,6 C 2,7 C 46 % 59 % 1009,4 hPa 0,0 l/m 0,6 km/h (0 Bft) S-SW 202 0 min 17,9 C 33,6 C 1,8 km/h (1 Bft)
06.07.2021 15:40 30,8 C 19,5 C 27,1 C 33,3 C 33,3 C 2,5 C 46 % 59 % 1009,4 hPa 0,0 l/m 0,8 km/h (0 Bft) SW 225 0 min 17,8 C 33,3 C 1,6 km/h (1 Bft)
06.07.2021 15:45 30,4 C 19,5 C 26,8 C 32,5 C 32,5 C 2,1 C 46 % 58 % 1009,4 hPa 0,0 l/m 1,0 km/h (0 Bft) S 180 0 min 17,5 C 32,5 C 2,7 km/h (1 Bft)
06.07.2021 15:50 30,1 C 19,5 C 26,7 C 31,9 C 31,9 C 1,8 C 47 % 59 % 1009,4 hPa 0,0 l/m 1,3 km/h (1 Bft) S 180 0 min 17,5 C 31,9 C 3,4 km/h (1 Bft)
06.07.2021 15:55 29,6 C 19,6 C 26,3 C 30,8 C 30,8 C 1,2 C 48 % 59 % 1010,1 hPa 0,0 l/m 1,8 km/h (1 Bft) SW 225 0 min 17,4 C 30,8 C 5,0 km/h (1 Bft)
06.07.2021 16:00 28,9 C 19,6 C 26,0 C 29,7 C 29,7 C 0,8 C 51 % 61 % 1010,1 hPa 0,0 l/m 3,4 km/h (1 Bft) SW 225 0 min 17,7 C 29,7 C 9,7 km/h (2 Bft)
06.07.2021 16:05 26,7 C 19,7 C 24,7 C 26,7 C 26,7 C 0,0 C 57 % 65 % 1010,1 hPa 0,0 l/m 5,8 km/h (2 Bft) W 270 0 min 17,5 C 26,7 C 12,4 km/h (3 Bft)
06.07.2021 16:10 25,5 C 19,7 C 24,1 C 25,3 C 24,9 C 0,0 C 62 % 68 % 1010,1 hPa 0,0 l/m 5,8 km/h (2 Bft) SW 225 0 min 17,7 C 24,9 C 6,0 km/h (2 Bft)
06.07.2021 16:15 24,2 C 20,1 C 23,2 C 23,6 C 22,3 C 0,0 C 67 % 73 % 1011,1 hPa 0,0 l/m 5,0 km/h (1 Bft) S-SW 202 0 min 17,7 C 22,3 C 12,9 km/h (3 Bft)
06.07.2021 16:20 23,5 C 20,2 C 22,6 C 22,7 C 21,2 C 0,0 C 70 % 75 % 1011,1 hPa 0,0 l/m 4,3 km/h (1 Bft) SW 225 0 min 17,7 C 21,2 C 4,8 km/h (1 Bft)
06.07.2021 16:25 22,7 C 20,2 C 21,9 C 21,9 C 20,3 C 0,0 C 74 % 79 % 1011,1 hPa 0,0 l/m 2,7 km/h (1 Bft) W-SW 247 0 min 17,8 C 20,3 C 0,0 km/h (0 Bft)
06.07.2021 16:30 22,3 C 20,2 C 21,5 C 21,6 C 20,1 C 0,0 C 75 % 80 % 1011,1 hPa 0,7 l/m 1,3 km/h (1 Bft) SW 225 0 min 17,6 C 20,1 C 0,0 km/h (0 Bft)
06.07.2021 16:35 21,9 C 20,2 C 21,1 C 21,3 C 20,0 C 0,0 C 77 % 82 % 1011,6 hPa 0,7 l/m 0,2 km/h (0 Bft) SW 225 0 min 17,7 C 20,0 C 0,0 km/h (0 Bft)
06.07.2021 16:40 21,7 C 20,3 C 20,7 C 21,2 C 20,1 C 0,0 C 78 % 83 % 1011,6 hPa 0,0 l/m 0,2 km/h (0 Bft) NW 315 0 min 17,7 C 20,1 C 0,0 km/h (0 Bft)
06.07.2021 16:45 21,6 C 20,3 C 20,7 C 21,3 C 20,6 C 0,0 C 80 % 85 % 1011,6 hPa 0,0 l/m 0,0 km/h (0 Bft) S 180 0 min 18,0 C 20,6 C 0,0 km/h (0 Bft)
06.07.2021 16:50 21,6 C 20,3 C 20,7 C 21,4 C 20,9 C 0,0 C 81 % 86 % 1011,6 hPa 0,0 l/m 0,0 km/h (0 Bft) W-NW 292 0 min 18,2 C 20,9 C 0,0 km/h (0 Bft)
06.07.2021 16:55 21,6 C 20,3 C 20,7 C 21,4 C 21,0 C 0,0 C 82 % 88 % 1011,4 hPa 0,0 l/m 0,0 km/h (0 Bft) S 180 0 min 18,4 C 21,0 C 0,0 km/h (0 Bft)
06.07.2021 17:00 21,6 C 20,3 C 20,6 C 21,4 C 21,0 C 0,0 C 83 % 89 % 1011,4 hPa 0,0 l/m 0,0 km/h (0 Bft) S 180 0 min 18,6 C 21,0 C 0,0 km/h (0 Bft)
06.07.2021 17:05 21,5 C 20,3 C 20,5 C 21,3 C 20,8 C 0,0 C 83 % 90 % 1011,4 hPa 0,0 l/m 0,0 km/h (0 Bft) S 180 0 min 18,5 C 20,8 C 0,0 km/h (0 Bft)
06.07.2021 17:10 21,4 C 20,3 C 20,4 C 21,2 C 20,7 C 0,0 C 83 % 90 % 1011,4 hPa 0,0 l/m 0,0 km/h (0 Bft) S 180 0 min 18,4 C 20,7 C 0,0 km/h (0 Bft)
06.07.2021 17:15 21,3 C 20,3 C 20,3 C 21,0 C 20,5 C 0,0 C 83 % 91 % 1011,6 hPa 0,0 l/m 0,0 km/h (0 Bft) S 180 0 min 18,3 C 20,5 C 0,0 km/h (0 Bft)
06.07.2021 17:20 21,3 C 20,3 C 20,3 C 21,0 C 20,4 C 0,0 C 84 % 91 % 1011,6 hPa 0,0 l/m 0,0 km/h (0 Bft) S 180 0 min 18,5 C 20,4 C 0,0 km/h (0 Bft)
06.07.2021 17:25 21,2 C 20,3 C 20,3 C 20,9 C 20,2 C 0,0 C 84 % 91 % 1011,6 hPa 0,0 l/m 0,0 km/h (0 Bft) O-NO 67 0 min 18,4 C 20,2 C 0,0 km/h (0 Bft)
06.07.2021 17:30 21,1 C 20,3 C 20,2 C 20,8 C 20,3 C 0,0 C 84 % 91 % 1011,6 hPa 0,0 l/m 0,0 km/h (0 Bft) O-NO 67 0 min 18,3 C 20,3 C 0,0 km/h (0 Bft)
06.07.2021 17:35 21,1 C 20,3 C 20,3 C 20,9 C 20,5 C 0,0 C 85 % 91 % 1011,4 hPa 0,0 l/m 0,2 km/h (0 Bft) O-NO 67 0 min 18,5 C 20,5 C 0,0 km/h (0 Bft)
06.07.2021 17:40 21,1 C 20,3 C 20,4 C 20,9 C 20,5 C 0,0 C 85 % 91 % 1011,4 hPa 0,0 l/m 0,2 km/h (0 Bft) O-NO 67 0 min 18,5 C 20,5 C 0,0 km/h (0 Bft)
06.07.2021 17:45 21,0 C 20,3 C 20,5 C 20,9 C 20,7 C 0,0 C 85 % 91 % 1011,4 hPa 0,0 l/m 0,2 km/h (0 Bft) O-NO 67 0 min 18,4 C 20,7 C 0,0 km/h (0 Bft)
06.07.2021 17:50 21,1 C 20,3 C 20,6 C 21,1 C 21,0 C 0,0 C 85 % 91 % 1011,4 hPa 0,0 l/m 0,2 km/h (0 Bft) O-NO 67 0 min 18,5 C 21,0 C 0,0 km/h (0 Bft)
06.07.2021 17:55 21,1 C 20,4 C 20,7 C 21,3 C 21,3 C 0,2 C 86 % 91 % 1011,2 hPa 0,0 l/m 0,0 km/h (0 Bft) O-NO 67 0 min 18,7 C 21,3 C 0,0 km/h (0 Bft)
06.07.2021 18:00 21,1 C 20,4 C 20,9 C 21,6 C 21,6 C 0,5 C 86 % 91 % 1011,2 hPa 0,0 l/m 0,0 km/h (0 Bft) O-NO 67 0 min 18,7 C 21,6 C 0,0 km/h (0 Bft)
06.07.2021 18:05 21,3 C 20,4 C 21,1 C 22,1 C 22,1 C 0,8 C 86 % 91 % 1011,2 hPa 0,0 l/m 0,0 km/h (0 Bft) O-NO 67 0 min 18,9 C 22,1 C 0,0 km/h (0 Bft)
06.07.2021 18:10 21,2 C 20,4 C 21,0 C 22,0 C 22,0 C 0,8 C 86 % 91 % 1011,2 hPa 0,0 l/m 0,0 km/h (0 Bft) O-NO 67 0 min 18,8 C 22,0 C 0,0 km/h (0 Bft)
06.07.2021 18:15 21,3 C 20,4 C 20,9 C 21,9 C 21,9 C 0,6 C 86 % 91 % 1011,4 hPa 0,0 l/m 0,0 km/h (0 Bft) O-NO 67 0 min 18,9 C 21,9 C 0,0 km/h (0 Bft)
06.07.2021 18:20 21,3 C 20,4 C 21,0 C 22,1 C 22,1 C 0,8 C 86 % 91 % 1011,4 hPa 0,0 l/m 0,0 km/h (0 Bft) O-NO 67 0 min 18,9 C 22,1 C 0,0 km/h (0 Bft)
06.07.2021 18:25 21,5 C 20,4 C 21,1 C 22,6 C 22,6 C 1,1 C 86 % 91 % 1011,4 hPa 0,0 l/m 0,0 km/h (0 Bft) O-NO 67 0 min 19,1 C 22,6 C 0,0 km/h (0 Bft)
06.07.2021 18:30 21,5 C 20,4 C 21,3 C 23,4 C 23,4 C 1,9 C 87 % 91 % 1011,4 hPa 0,0 l/m 0,0 km/h (0 Bft) O-NO 67 0 min 19,2 C 23,4 C 0,0 km/h (0 Bft)
06.07.2021 18:35 21,6 C 20,4 C 21,2 C 24,2 C 24,2 C 2,6 C 86 % 91 % 1011,2 hPa 0,0 l/m 0,0 km/h (0 Bft) O-NO 67 0 min 19,2 C 24,2 C 0,0 km/h (0 Bft)
06.07.2021 18:40 21,6 C 20,4 C 21,1 C 23,8 C 23,8 C 2,2 C 86 % 91 % 1011,2 hPa 0,0 l/m 0,0 km/h (0 Bft) O-NO 67 0 min 19,2 C 23,8 C 0,0 km/h (0 Bft)
06.07.2021 18:45 21,6 C 20,4 C 21,1 C 23,2 C 23,2 C 1,6 C 86 % 91 % 1011,2 hPa 0,0 l/m 0,0 km/h (0 Bft) O-NO 67 0 min 19,2 C 23,2 C 0,0 km/h (0 Bft)
06.07.2021 18:50 21,6 C 20,4 C 21,0 C 22,8 C 22,8 C 1,2 C 86 % 91 % 1011,2 hPa 0,0 l/m 0,0 km/h (0 Bft) O-NO 67 0 min 19,2 C 22,8 C 0,0 km/h (0 Bft)
06.07.2021 18:55 21,7 C 20,4 C 20,9 C 22,4 C 22,4 C 0,7 C 86 % 91 % 1011,4 hPa 0,0 l/m 0,0 km/h (0 Bft) O-NO 67 0 min 19,3 C 22,4 C 0,0 km/h (0 Bft)
06.07.2021 19:00 21,7 C 20,4 C 21,0 C 22,3 C 22,3 C 0,6 C 86 % 91 % 1011,4 hPa 0,0 l/m 0,0 km/h (0 Bft) O-NO 67 0 min 19,3 C 22,3 C 0,0 km/h (0 Bft)
06.07.2021 19:05 21,6 C 20,4 C 21,0 C 22,2 C 22,2 C 0,6 C 86 % 91 % 1011,4 hPa 0,0 l/m 0,0 km/h (0 Bft) O-NO 67 0 min 19,2 C 22,2 C 0,0 km/h (0 Bft)
06.07.2021 19:10 21,5 C 20,5 C 21,0 C 22,2 C 22,2 C 0,7 C 86 % 91 % 1011,4 hPa 0,0 l/m 0,0 km/h (0 Bft) O-NO 67 0 min 19,1 C 22,2 C 0,0 km/h (0 Bft)
06.07.2021 19:15 21,5 C 20,5 C 21,1 C 22,3 C 22,3 C 0,8 C 86 % 91 % 1011,2 hPa 0,0 l/m 0,0 km/h (0 Bft) O-NO 67 0 min 19,1 C 22,3 C 0,0 km/h (0 Bft)
06.07.2021 19:20 21,5 C 20,5 C 21,1 C 22,5 C 22,5 C 1,0 C 87 % 91 % 1011,2 hPa 0,0 l/m 0,0 km/h (0 Bft) O-NO 67 0 min 19,2 C 22,5 C 0,0 km/h (0 Bft)
06.07.2021 19:25 21,6 C 20,5 C 21,2 C 22,7 C 22,7 C 1,1 C 87 % 91 % 1011,2 hPa 0,0 l/m 0,0 km/h (0 Bft) O-NO 67 0 min 19,3 C 22,7 C 0,0 km/h (0 Bft)
06.07.2021 19:30 21,7 C 20,5 C 21,3 C 22,9 C 22,9 C 1,2 C 87 % 91 % 1011,2 hPa 0,0 l/m 0,0 km/h (0 Bft) O-NO 67 0 min 19,4 C 22,9 C 0,0 km/h (0 Bft)
06.07.2021 19:35 21,6 C 20,5 C 21,3 C 22,9 C 22,9 C 1,3 C 87 % 91 % 1011,1 hPa 0,0 l/m 0,0 km/h (0 Bft) O-NO 67 0 min 19,3 C 22,9 C 0,0 km/h (0 Bft)
06.07.2021 19:40 21,6 C 20,5 C 21,2 C 22,7 C 22,7 C 1,1 C 87 % 91 % 1011,1 hPa 0,0 l/m 0,0 km/h (0 Bft) O-NO 67 0 min 19,3 C 22,7 C 0,0 km/h (0 Bft)
06.07.2021 19:45 21,6 C 20,5 C 21,2 C 22,6 C 22,6 C 1,0 C 87 % 91 % 1011,1 hPa 0,0 l/m 0,0 km/h (0 Bft) O-NO 67 0 min 19,3 C 22,6 C 0,0 km/h (0 Bft)
06.07.2021 19:50 21,7 C 20,5 C 21,1 C 22,5 C 22,5 C 0,8 C 87 % 91 % 1011,1 hPa 0,0 l/m 0,0 km/h (0 Bft) O-NO 67 0 min 19,4 C 22,5 C 0,0 km/h (0 Bft)
06.07.2021 19:55 21,7 C 20,5 C 21,1 C 22,4 C 22,4 C 0,7 C 87 % 91 % 1011,0 hPa 0,0 l/m 0,0 km/h (0 Bft) O-NO 67 0 min 19,4 C 22,4 C 0,0 km/h (0 Bft)
06.07.2021 20:00 21,7 C 20,5 C 21,1 C 22,3 C 22,3 C 0,6 C 87 % 91 % 1011,0 hPa 0,0 l/m 0,0 km/h (0 Bft) O-NO 67 0 min 19,4 C 22,3 C 0,0 km/h (0 Bft)
06.07.2021 20:05 21,7 C 20,5 C 21,1 C 22,1 C 22,1 C 0,4 C 87 % 91 % 1011,0 hPa 0,0 l/m 0,0 km/h (0 Bft) O-NO 67 0 min 19,4 C 22,1 C 0,0 km/h (0 Bft)
06.07.2021 20:10 21,7 C 20,5 C 21,0 C 22,0 C 22,0 C 0,3 C 87 % 91 % 1011,0 hPa 0,0 l/m 0,0 km/h (0 Bft) O-NO 67 0 min 19,4 C 22,0 C 0,0 km/h (0 Bft)
06.07.2021 20:15 21,7 C 20,5 C 21,0 C 21,8 C 21,8 C 0,1 C 87 % 91 % 1011,0 hPa 0,0 l/m 0,0 km/h (0 Bft) O-NO 67 0 min 19,4 C 21,8 C 0,0 km/h (0 Bft)
06.07.2021 20:20 21,7 C 20,5 C 20,9 C 21,7 C 21,7 C 0,0 C 87 % 91 % 1011,0 hPa 0,0 l/m 0,0 km/h (0 Bft) O-NO 67 0 min 19,4 C 21,7 C 0,0 km/h (0 Bft)
06.07.2021 20:25 21,7 C 20,6 C 20,9 C 21,7 C 21,6 C 0,0 C 87 % 91 % 1011,0 hPa 0,0 l/m 0,0 km/h (0 Bft) O-NO 67 0 min 19,4 C 21,6 C 0,0 km/h (0 Bft)
06.07.2021 20:30 21,6 C 20,6 C 20,8 C 21,6 C 21,6 C 0,0 C 87 % 91 % 1011,0 hPa 0,0 l/m 0,0 km/h (0 Bft) O-NO 67 0 min 19,3 C 21,6 C 0,0 km/h (0 Bft)
06.07.2021 20:35 21,6 C 20,6 C 20,9 C 21,6 C 21,5 C 0,0 C 87 % 91 % 1011,2 hPa 0,0 l/m 0,0 km/h (0 Bft) O-NO 67 0 min 19,3 C 21,5 C 0,0 km/h (0 Bft)
06.07.2021 20:40 21,7 C 20,6 C 20,8 C 21,6 C 21,4 C 0,0 C 87 % 91 % 1011,2 hPa 0,0 l/m 0,0 km/h (0 Bft) O-NO 67 0 min 19,4 C 21,4 C 0,0 km/h (0 Bft)
06.07.2021 20:45 21,5 C 20,5 C 20,8 C 21,5 C 21,4 C 0,0 C 87 % 91 % 1011,2 hPa 0,0 l/m 0,0 km/h (0 Bft) O-NO 67 0 min 19,2 C 21,4 C 0,0 km/h (0 Bft)
06.07.2021 20:50 21,5 C 20,5 C 20,8 C 21,4 C 21,3 C 0,0 C 87 % 91 % 1011,2 hPa 0,0 l/m 0,0 km/h (0 Bft) O-NO 67 0 min 19,2 C 21,3 C 0,0 km/h (0 Bft)
06.07.2021 20:55 21,4 C 20,6 C 20,7 C 21,3 C 21,2 C 0,0 C 87 % 91 % 1010,9 hPa 0,0 l/m 0,2 km/h (0 Bft) O-NO 67 0 min 19,1 C 21,2 C 0,0 km/h (0 Bft)
06.07.2021 21:00 21,3 C 20,6 C 20,7 C 21,3 C 21,2 C 0,0 C 87 % 91 % 1010,9 hPa 0,0 l/m 0,2 km/h (0 Bft) O-NO 67 0 min 19,0 C 21,2 C 0,0 km/h (0 Bft)
06.07.2021 21:05 21,2 C 20,6 C 20,6 C 21,1 C 21,0 C 0,0 C 87 % 91 % 1010,9 hPa 0,0 l/m 0,0 km/h (0 Bft) O-NO 67 0 min 18,9 C 21,0 C 0,0 km/h (0 Bft)
06.07.2021 21:10 21,2 C 20,6 C 20,6 C 21,1 C 21,0 C 0,0 C 87 % 91 % 1010,9 hPa 0,0 l/m 0,0 km/h (0 Bft) O-NO 67 0 min 18,9 C 21,0 C 0,0 km/h (0 Bft)
06.07.2021 21:15 21,3 C 20,6 C 20,6 C 21,2 C 20,9 C 0,0 C 87 % 91 % 1011,3 hPa 0,0 l/m 0,0 km/h (0 Bft) O-NO 67 0 min 19,0 C 20,9 C 0,0 km/h (0 Bft)
06.07.2021 21:20 21,2 C 20,6 C 20,6 C 21,1 C 20,8 C 0,0 C 87 % 91 % 1011,3 hPa 0,0 l/m 0,0 km/h (0 Bft) O-NO 67 0 min 18,9 C 20,8 C 0,0 km/h (0 Bft)
06.07.2021 21:25 21,1 C 20,6 C 20,5 C 21,0 C 20,8 C 0,0 C 87 % 91 % 1011,3 hPa 0,0 l/m 0,0 km/h (0 Bft) O-NO 67 0 min 18,8 C 20,8 C 0,0 km/h (0 Bft)
06.07.2021 21:30 21,1 C 20,6 C 20,5 C 21,0 C 20,7 C 0,0 C 87 % 91 % 1011,3 hPa 0,0 l/m 0,0 km/h (0 Bft) O-NO 67 0 min 18,8 C 20,7 C 0,0 km/h (0 Bft)
06.07.2021 21:35 21,0 C 20,5 C 20,5 C 20,9 C 20,7 C 0,0 C 87 % 91 % 1011,8 hPa 0,0 l/m 0,0 km/h (0 Bft) O-NO 67 0 min 18,7 C 20,7 C 0,0 km/h (0 Bft)
06.07.2021 21:40 20,9 C 20,5 C 20,5 C 20,8 C 20,7 C 0,0 C 86 % 91 % 1011,8 hPa 0,0 l/m 0,0 km/h (0 Bft) O-NO 67 0 min 18,5 C 20,7 C 0,0 km/h (0 Bft)
06.07.2021 21:45 20,8 C 20,6 C 20,2 C 20,6 C 20,3 C 0,0 C 86 % 91 % 1011,8 hPa 0,0 l/m 0,2 km/h (0 Bft) S 180 0 min 18,4 C 20,3 C 0,0 km/h (0 Bft)
06.07.2021 21:50 20,9 C 20,5 C 20,1 C 20,6 C 20,1 C 0,0 C 86 % 91 % 1011,8 hPa 0,0 l/m 0,2 km/h (0 Bft) S 180 0 min 18,5 C 20,1 C 0,0 km/h (0 Bft)
06.07.2021 21:55 20,7 C 20,6 C 19,9 C 20,4 C 19,7 C 0,0 C 86 % 91 % 1012,6 hPa 0,0 l/m 0,2 km/h (0 Bft) S 180 0 min 18,3 C 19,7 C 0,0 km/h (0 Bft)
06.07.2021 22:00 20,5 C 20,5 C 19,8 C 20,2 C 19,6 C 0,0 C 86 % 92 % 1012,6 hPa 0,0 l/m 0,0 km/h (0 Bft) SO 135 0 min 18,1 C 19,6 C 0,0 km/h (0 Bft)
06.07.2021 22:05 20,3 C 20,5 C 19,7 C 20,0 C 19,4 C 0,0 C 86 % 92 % 1012,6 hPa 0,7 l/m 0,0 km/h (0 Bft) O-NO 67 0 min 17,9 C 19,4 C 0,0 km/h (0 Bft)
06.07.2021 22:10 20,2 C 20,5 C 19,5 C 19,9 C 19,3 C 0,0 C 86 % 91 % 1012,6 hPa 0,0 l/m 0,0 km/h (0 Bft) O-NO 67 0 min 17,8 C 19,3 C 0,0 km/h (0 Bft)
06.07.2021 22:15 20,0 C 20,6 C 19,5 C 19,7 C 19,2 C 0,0 C 86 % 91 % 1012,0 hPa 0,0 l/m 0,2 km/h (0 Bft) NO 45 0 min 17,6 C 19,2 C 1,6 km/h (1 Bft)
06.07.2021 22:20 20,0 C 20,6 C 19,4 C 19,7 C 19,2 C 0,0 C 87 % 91 % 1012,0 hPa 0,0 l/m 0,2 km/h (0 Bft) NO 45 0 min 17,8 C 19,2 C 0,0 km/h (0 Bft)
06.07.2021 22:25 19,9 C 20,6 C 19,3 C 19,6 C 19,1 C 0,0 C 87 % 91 % 1012,0 hPa 0,0 l/m 0,0 km/h (0 Bft) NO 45 0 min 17,7 C 19,1 C 0,0 km/h (0 Bft)
06.07.2021 22:30 19,8 C 20,6 C 19,1 C 19,5 C 19,0 C 0,0 C 87 % 91 % 1012,0 hPa 0,0 l/m 0,0 km/h (0 Bft) NO 45 0 min 17,6 C 19,0 C 0,0 km/h (0 Bft)
06.07.2021 22:35 19,7 C 20,6 C 18,9 C 19,4 C 18,9 C 0,0 C 87 % 91 % 1012,1 hPa 0,0 l/m 0,0 km/h (0 Bft) NO 45 0 min 17,5 C 18,9 C 0,0 km/h (0 Bft)
06.07.2021 22:40 19,5 C 20,5 C 18,9 C 19,3 C 18,9 C 0,0 C 87 % 91 % 1012,1 hPa 0,0 l/m 0,0 km/h (0 Bft) NO 45 0 min 17,3 C 18,9 C 0,0 km/h (0 Bft)
06.07.2021 22:45 19,5 C 20,5 C 18,9 C 19,3 C 18,8 C 0,0 C 87 % 91 % 1012,1 hPa 0,0 l/m 0,0 km/h (0 Bft) NO 45 0 min 17,3 C 18,8 C 0,0 km/h (0 Bft)
06.07.2021 22:50 19,3 C 20,5 C 18,9 C 19,1 C 18,8 C 0,0 C 87 % 91 % 1012,1 hPa 0,0 l/m 0,0 km/h (0 Bft) NO 45 0 min 17,1 C 18,8 C 0,0 km/h (0 Bft)
06.07.2021 22:55 19,3 C 20,6 C 18,9 C 19,2 C 18,9 C 0,0 C 87 % 91 % 1013,0 hPa 0,0 l/m 0,0 km/h (0 Bft) O-SO 112 0 min 17,1 C 18,9 C 0,0 km/h (0 Bft)
06.07.2021 23:00 19,2 C 20,6 C 18,9 C 19,1 C 18,9 C 0,0 C 87 % 91 % 1013,0 hPa 0,0 l/m 0,2 km/h (0 Bft) SW 225 0 min 17,0 C 18,9 C 1,6 km/h (1 Bft)
06.07.2021 23:05 19,2 C 20,6 C 18,7 C 19,0 C 18,7 C 0,0 C 87 % 91 % 1013,0 hPa 0,0 l/m 1,0 km/h (0 Bft) SW 225 0 min 17,0 C 18,7 C 2,1 km/h (1 Bft)
06.07.2021 23:10 19,1 C 20,6 C 18,7 C 18,9 C 18,6 C 0,0 C 87 % 91 % 1013,0 hPa 0,0 l/m 1,4 km/h (1 Bft) S 180 0 min 16,9 C 18,6 C 2,6 km/h (1 Bft)
06.07.2021 23:15 19,0 C 20,5 C 18,7 C 18,8 C 18,5 C 0,0 C 87 % 91 % 1013,3 hPa 0,0 l/m 0,6 km/h (0 Bft) S 180 0 min 16,8 C 18,5 C 0,0 km/h (0 Bft)
06.07.2021 23:20 18,9 C 20,5 C 18,6 C 18,8 C 18,5 C 0,0 C 87 % 91 % 1013,3 hPa 0,0 l/m 0,5 km/h (0 Bft) S 180 0 min 16,7 C 18,5 C 0,0 km/h (0 Bft)
06.07.2021 23:25 18,8 C 20,5 C 18,5 C 18,7 C 18,5 C 0,0 C 87 % 91 % 1013,3 hPa 0,7 l/m 0,0 km/h (0 Bft) S 180 0 min 16,6 C 18,5 C 0,0 km/h (0 Bft)
06.07.2021 23:30 18,9 C 20,4 C 18,5 C 18,8 C 18,5 C 0,0 C 87 % 91 % 1013,3 hPa 0,0 l/m 0,0 km/h (0 Bft) S 180 0 min 16,7 C 18,5 C 0,0 km/h (0 Bft)
06.07.2021 23:35 18,8 C 20,4 C 18,5 C 18,7 C 18,5 C 0,0 C 87 % 91 % 1013,1 hPa 0,0 l/m 0,0 km/h (0 Bft) S 180 0 min 16,6 C 18,5 C 0,0 km/h (0 Bft)
06.07.2021 23:40 18,7 C 20,4 C 18,4 C 18,6 C 18,5 C 0,0 C 87 % 91 % 1013,1 hPa 0,0 l/m 0,0 km/h (0 Bft) S 180 0 min 16,5 C 18,5 C 0,0 km/h (0 Bft)
06.07.2021 23:45 18,6 C 20,4 C 18,4 C 18,5 C 18,4 C 0,0 C 87 % 91 % 1013,1 hPa 0,0 l/m 0,0 km/h (0 Bft) S 180 0 min 16,4 C 18,4 C 0,0 km/h (0 Bft)
06.07.2021 23:50 18,6 C 20,4 C 18,4 C 18,5 C 18,4 C 0,0 C 87 % 91 % 1013,1 hPa 0,0 l/m 0,0 km/h (0 Bft) S 180 0 min 16,4 C 18,4 C 0,0 km/h (0 Bft)
06.07.2021 23:55 18,5 C 20,4 C 18,3 C 18,5 C 18,4 C 0,0 C 87 % 90 % 1012,9 hPa 0,0 l/m 0,0 km/h (0 Bft) S 180 0 min 16,3 C 18,4 C 0,0 km/h (0 Bft)
_ Min-Zeit 06:02 09:05 04:23 06:02 04:08 00:03 14:10 14:15 14:35 - 00:03 - - - 06:02 04:08 00:03
Minimum _ 13,0 C 18,2 C 13,7 C 13,0 C 12,9 C 0,0 C 44 % 56 % 1009,4 hPa - 0,0 km/h (0 Bft) - - - 11,1 C 12,9 C 0,0 km/h (0 Bft)
_ Max-Zeit 15:05 20:25 14:55 15:00 15:00 07:50 07:40 03:38 23:15 16:30 16:05 - - 08:29 19:30 15:00 16:15
Maximum _ 32,4 C 20,6 C 27,9 C 37,4 C 37,4 C 13,6 C 89 % 92 % 1013,3 hPa 0,7 l/m 5,8 km/h
W (2 Bft)
- - 18 min 19,4 C 37,4 C 12,9 km/h
S-SW (3 Bft)
Durchschnitt _ 21,0 C 19,4 C 19,6 C 23,8 C 23,6 C 2,9 C 76 % 83 % 1011,1 hPa #2,7 l/m 0,3 km/h (0 Bft) SW - #8:10 h 16,1 C 23,6 C 0,6 km/h (0 Bft)
2021 www.wetterstation-wechselburg.de